Date,TemperatureHighF,TemperatureAvgF,TemperatureLowF,DewpointHighF,DewpointAvgF,DewpointLowF,HumidityHigh,HumidityAvg,HumidityLow,PressureMaxIn,PressureMinIn,WindSpeedMaxMPH,WindSpeedAvgMPH,GustSpeedMaxMPH,PrecipitationSumIn
2013-3-1,34.5,29.4,24.8,24.8,21.1,16.6,80,71,57,30.22,30.06,5,2,12,0.12
2013-3-2,35.6,26.8,18.0,16.8,12.1,5.5,71,54,34,30.25,30.20,6,3,16,0.00
2013-3-3,37.0,25.9,12.4,19.9,10.0,2.9,67,52,24,30.22,30.05,4,1,8,0.00
2013-3-4,45.5,35.6,29.5,29.8,24.6,18.3,77,64,53,30.06,29.82,6,3,13,0.07
2013-3-5,34.0,32.3,30.2,26.9,23.3,17.3,80,69,54,30.12,29.83,9,5,23,0.05
2013-3-6,34.0,29.0,22.3,20.6,17.4,13.4,70,62,53,30.36,30.12,8,4,17,0.00
2013-3-7,45.3,31.7,22.1,27.7,20.8,14.2,73,64,46,30.43,30.33,3,1,8,0.00
2013-3-8,51.1,39.5,29.1,33.7,27.9,22.2,75,64,46,30.43,30.20,4,2,9,0.00
2013-3-9,59.4,47.3,37.9,41.9,34.9,28.8,81,63,49,30.20,29.78,6,4,14,0.90
2013-3-10,55.0,50.6,45.3,47.5,43.8,37.4,83,78,53,29.78,29.62,6,2,14,1.17
2013-3-11,45.1,34.7,32.5,38.2,27.0,21.4,81,73,63,29.97,29.68,10,6,22,0.02
2013-3-12,43.3,33.3,25.9,26.9,21.2,14.4,74,61,49,30.20,29.95,10,5,22,0.00
2013-3-13,39.6,30.5,24.3,16.4,13.0,8.5,62,49,30,30.40,30.19,8,4,18,0.00
2013-3-14,53.4,37.2,25.9,31.6,22.6,13.2,68,56,42,30.39,30.10,5,2,15,0.00
2013-3-15,63.3,47.9,32.0,44.2,34.3,24.0,73,60,42,30.11,29.65,4,2,8,0.00
2013-3-16,54.0,41.5,35.8,42.1,32.5,24.1,82,70,62,30.08,29.63,7,3,14,0.00
2013-3-17,41.0,34.8,30.9,27.8,24.7,20.6,78,66,54,30.14,29.84,4,2,14,0.09
2013-3-18,50.2,37.2,30.4,34.0,26.8,12.3,81,68,35,30.02,29.69,10,4,21,0.09
2013-3-19,44.4,33.9,24.8,15.9,10.2,2.9,53,38,22,30.20,29.99,8,4,17,0.00
2013-3-20,33.6,26.7,19.4,16.3,5.0,-2.8,57,40,24,30.27,30.12,10,5,19,0.00
2013-3-21,37.9,25.8,15.1,12.3,5.2,0.3,54,42,24,30.14,30.00,4,2,11,0.00
2013-3-22,40.3,32.5,22.5,18.4,14.1,10.6,64,47,32,30.07,30.00,3,1,8,0.00
2013-3-23,54.9,42.5,34.5,25.8,21.2,16.0,58,43,26,30.08,29.89,5,2,14,0.00
2013-3-24,38.5,30.7,29.3,26.7,25.2,23.8,82,80,58,29.96,29.61,6,1,15,0.00
2013-3-25,37.4,30.6,26.2,27.5,22.7,16.8,82,72,61,30.18,29.81,7,2,15,0.00
2013-3-26,42.6,33.5,27.3,23.9,20.5,15.0,73,59,43,30.34,30.18,6,3,13,0.00
2013-3-27,46.0,33.4,22.3,22.4,17.5,13.0,68,53,30,30.40,30.32,4,1,8,0.00
2013-3-28,50.4,38.5,27.0,29.8,22.6,14.2,65,53,36,30.38,30.27,3,1,9,0.00
2013-3-29,60.4,46.5,34.7,40.4,31.5,24.2,68,57,37,30.29,30.21,3,1,8,0.00
2013-3-30,55.4,47.1,39.9,41.0,37.0,30.7,80,68,52,30.23,29.92,5,2,11,0.00
2013-3-31,63.0,51.3,41.9,45.0,38.2,26.5,81,63,37,29.99,29.84,7,3,16,0.00